Theta_e
300 300 301 301 301 301 301 302 302 302 302 302 303 305 306 309 310 311 310 309 309 309 310 313 313 314 315 314 314 314 312 311 314 315 314 315 314 315 314 313 314 314 313 312 313
300 300 300 301 301 301 302 302 302 303 303 303 303 304 307 308 310 312 309 309 309 309 311 315 314 314 315 315 315 313 311 315 313 314 313 314 314 314 314 314 314 314 314 312 310
300 300 300 300 301 301 302 302 303 303 303 303 303 304 306 308 313 313 309 309 309 309 310 314 314 315 315 315 315 314 314 313 314 315 314 314 314 315 314 314 312 311 311 310 310
300 300 300 300 300 301 301 302 303 304 304 303 303 304 306 309 319 314 308 309 308 309 310 313 315 315 315 314 314 314 314 314 315 314 314 314 313 313 314 313 313 311 311 310 309
302 300 300 300 300 300 301 301 302 304 304 303 303 304 307 313 314 310 309 308 309 309 311 314 314 314 315 313 313 313 313 314 314 314 314 313 313 313 313 314 312 311 310 309 309
308 302 301 300 300 300 300 301 301 303 304 304 303 304 309 314 313 309 308 308 309 311 310 313 314 314 314 314 315 314 314 314 314 314 314 313 312 313 312 312 312 312 310 309 308
317 309 303 301 300 300 300 301 301 301 304 305 304 305 306 311 312 309 308 309 309 311 310 311 314 316 315 314 315 314 314 314 313 313 313 312 309 311 312 313 311 311 310 309 308
319 318 307 303 301 300 300 301 301 301 302 304 304 305 311 313 309 308 308 309 310 311 310 311 314 316 316 315 314 314 314 315 314 313 313 310 307 311 312 312 312 311 310 309 308
321 319 318 305 302 301 301 301 301 301 301 303 306 306 312 310 308 308 308 310 310 310 310 311 315 313 314 313 312 313 313 314 315 313 313 311 309 312 312 312 311 311 309 309 308
323 321 319 319 305 302 301 300 301 301 303 305 307 308 308 310 310 308 307 308 311 312 313 314 313 312 311 312 315 318 313 313 312 312 312 311 311 311 312 312 312 311 310 308 308
322 322 320 319 319 306 301 301 305 309 305 311 311 310 311 311 308 308 308 309 311 313 313 314 311 308 312 312 313 312 312 313 313 312 310 309 310 310 311 311 311 310 310 308 307
323 322 321 321 320 317 302 300 304 303 301 305 308 310 310 309 311 310 307 312 312 312 312 311 310 313 312 312 312 313 312 312 309 310 310 309 310 310 309 311 312 311 310 307 307
322 322 321 321 320 318 304 301 301 301 303 305 304 305 307 307 310 310 307 310 311 312 311 311 312 312 312 311 312 312 311 309 309 310 310 309 308 313 311 312 312 312 310 309 308
321 321 320 321 318 318 311 301 300 301 309 310 305 307 307 307 308 311 309 310 310 311 311 311 310 311 310 311 310 311 311 310 311 309 309 308 308 303 311 311 310 310 310 309 307
319 321 319 319 318 316 309 301 301 311 326 310 307 307 307 307 308 309 309 311 310 309 308 310 310 310 311 311 309 310 309 310 310 310 311 309 305 306 310 310 309 309 310 308 307
317 319 317 318 317 317 303 300 310 316 324 309 306 308 307 308 309 308 309 309 310 310 309 309 309 309 309 307 308 308 310 310 310 309 307 306 307 307 307 308 308 309 310 307 306
313 315 315 317 317 317 308 305 313 321 311 309 307 308 308 308 310 309 310 310 308 308 310 310 309 308 308 309 308 309 309 308 309 307 310 310 308 308 310 309 308 308 307 305 304
310 312 313 313 316 316 312 308 316 316 310 309 308 309 309 309 310 310 309 310 309 309 310 309 310 308 307 309 310 308 308 311 311 313 310 307 309 308 309 309 310 310 307 305 302
306 310 312 313 314 314 309 312 317 316 312 309 309 309 308 309 309 310 310 310 310 308 311 311 311 307 307 307 308 309 309 307 307 302 307 305 306 307 307 307 306 305 305 304 302
303 309 311 312 312 311 310 316 311 313 310 308 312 309 307 307 310 310 310 310 311 308 308 310 311 308 307 307 307 308 306 305 304 305 310 309 309 307 308 306 305 304 304 304 302
301 306 307 309 308 306 308 309 310 312 308 309 310 311 310 308 306 309 310 309 309 308 309 309 310 308 307 307 307 306 307 308 306 307 311 309 308 304 307 307 305 305 307 306 303
300 302 304 305 302 300 305 306 309 310 306 308 308 311 310 308 307 308 310 309 308 308 309 308 308 306 308 306 305 305 305 306 308 308 306 309 307 306 306 307 306 306 307 307 304
297 299 301 303 305 302 302 303 304 306 307 308 307 310 309 309 310 310 309 305 307 308 308 307 303 301 304 306 303 307 306 307 305 304 307 307 307 305 306 307 308 307 308 307 303
296 298 299 300 299 302 304 306 306 303 306 307 308 307 309 310 310 308 307 305 306 307 306 307 307 307 308 311 304 305 305 306 306 306 306 307 307 307 304 305 306 307 308 306 303
296 296 299 300 300 300 304 305 308 304 303 307 307 308 310 311 311 310 306 305 305 306 306 307 303 304 304 304 305 305 306 305 307 308 307 308 308 309 307 303 305 308 308 304 302
295 295 297 297 300 301 301 304 307 306 303 304 308 308 309 311 311 310 306 306 307 305 305 305 306 300 299 303 302 304 303 305 306 307 308 307 307 308 307 307 305 306 307 303 303
294 294 293 296 300 302 302 303 306 307 304 308 306 308 309 310 309 309 308 308 308 305 306 306 305 305 309 301 297 301 301 304 305 305 307 307 308 307 307 305 306 306 307 307 306
Wind_Speed
3 4 5 6 7 7 7 7 8 7 7 6 5 5 3 1 3 3 6 6 5 4 1 5 6 8 4 1 1 1 3 2 3 2 4 3 3 2 2 1 2 3 5 7 16
5 5 4 5 5 6 7 7 7 8 7 6 5 5 4 2 2 4 4 4 4 3 2 3 4 1 0 1 1 2 3 2 3 2 3 4 3 1 1 3 3 7 4 12 14
6 6 6 5 5 6 6 6 7 7 8 7 5 4 3 2 1 1 4 4 4 3 0 3 3 1 2 1 1 0 2 4 3 5 6 3 2 0 0 0 1 4 11 14 14
8 7 7 6 6 6 6 6 7 7 6 5 5 3 1 0 1 1 5 4 2 1 4 5 3 1 3 3 1 2 2 4 4 3 1 2 3 4 8 4 3 4 8 9 13
8 9 8 8 7 7 6 7 6 7 6 4 3 2 1 1 3 3 3 3 1 3 4 5 1 2 2 4 2 0 1 4 4 2 1 3 5 5 7 8 5 2 4 7 9
9 8 9 9 8 7 7 7 6 6 7 6 3 2 2 1 3 3 2 1 1 2 5 7 3 3 4 3 2 2 4 5 3 3 3 1 3 2 3 11 3 4 5 7 8
10 10 9 9 9 9 8 8 8 7 6 5 4 3 3 4 3 3 1 1 2 2 4 5 8 3 4 2 2 3 1 2 6 4 1 2 6 7 11 9 4 6 7 8 7
11 11 11 10 10 9 9 8 8 7 7 4 3 3 3 4 5 3 2 2 4 5 4 6 6 5 3 6 2 1 1 2 1 6 2 3 7 4 15 10 8 8 9 7 7
13 12 12 10 9 10 9 8 8 8 6 5 3 3 4 4 5 3 3 3 4 4 5 6 4 3 4 4 3 1 2 4 2 7 1 3 6 4 14 12 10 10 10 8 7
15 14 13 12 9 9 9 8 8 7 6 5 6 2 5 4 3 3 4 4 3 4 3 2 2 2 2 3 3 3 2 3 2 3 3 5 16 10 17 18 15 12 11 8 5
17 15 14 13 12 9 7 6 3 2 6 5 3 1 3 5 5 4 4 4 4 2 3 1 3 4 6 5 2 1 1 2 1 2 3 6 14 14 17 22 18 14 13 9 6
17 17 16 14 11 11 6 3 4 2 5 11 12 9 7 7 3 5 6 4 4 3 4 4 3 1 6 4 3 3 2 3 4 3 0 6 19 15 10 14 25 18 12 8 7
20 19 18 16 13 11 8 6 3 3 2 4 7 7 7 10 3 9 8 4 4 3 5 4 3 3 2 1 2 2 3 2 3 6 4 7 9 5 4 6 20 15 11 7 8
24 21 22 18 13 13 10 8 4 0 4 4 4 3 6 6 3 8 10 4 2 5 5 3 3 4 2 3 4 1 2 4 2 4 2 4 5 5 4 2 5 13 10 8 7
20 23 21 22 9 8 5 9 6 4 2 3 3 5 7 4 7 2 8 4 3 4 6 3 5 3 3 2 3 3 2 2 1 1 3 4 3 7 2 5 8 11 13 10 8
14 18 22 23 23 15 9 10 9 4 8 3 4 4 4 3 3 5 3 2 1 2 2 2 2 2 2 3 4 5 2 2 2 1 2 4 4 6 3 5 3 5 12 15 7
9 12 22 20 29 23 17 16 2 5 2 5 4 6 3 5 4 5 5 4 5 5 4 2 2 2 3 3 3 2 3 3 4 3 4 2 2 10 6 6 5 9 17 14 7
14 11 22 25 26 21 22 3 6 4 5 4 3 6 5 6 3 5 5 4 6 2 4 5 3 6 4 3 4 4 4 4 5 1 4 2 6 6 4 7 7 16 18 12 8
13 14 18 26 32 25 20 3 6 6 6 9 3 4 3 4 4 5 6 5 7 9 5 5 1 1 3 3 2 3 3 2 4 2 3 4 7 6 2 4 10 17 19 14 10
12 9 21 28 33 31 3 8 5 4 5 3 9 6 7 5 7 6 8 5 3 7 3 1 4 1 0 2 2 2 2 3 3 1 4 5 5 6 6 9 7 10 19 16 13
12 5 7 27 31 17 4 7 5 7 2 5 7 6 5 7 7 6 6 2 1 3 7 2 3 1 2 6 8 2 2 2 2 4 4 2 6 6 5 10 14 12 23 21 21
5 2 7 28 5 4 4 9 9 6 8 1 3 3 7 7 7 6 8 3 4 8 8 3 4 4 6 1 2 4 7 5 4 4 2 1 7 2 5 4 12 16 22 22 20
8 3 10 24 4 3 3 2 6 5 6 6 4 4 3 8 4 5 5 2 3 4 6 6 1 2 7 4 3 4 5 4 3 3 6 5 5 1 3 3 7 15 21 25 25
5 2 5 18 5 3 5 3 6 6 6 7 5 5 3 2 2 7 4 1 3 2 4 8 3 6 6 1 4 5 6 7 6 3 4 9 7 5 6 7 8 13 23 28 29
4 3 4 3 8 4 3 8 9 6 3 10 3 7 7 4 4 4 4 2 3 2 0 5 6 4 5 6 4 6 5 9 13 19 8 4 16 19 14 11 20 26 27 31 32
4 3 4 4 3 9 8 3 12 9 10 6 6 16 14 9 9 9 7 5 5 3 5 2 2 3 4 5 8 8 9 14 17 19 19 18 25 16 20 20 14 25 30 35 37
13 19 8 7 3 3 5 10 2 11 10 15 19 8 15 16 10 9 4 4 7 9 7 7 5 3 4 2 4 7 18 22 16 9 18 16 31 2 6 11 24 26 35 40 41
Wind_Direction
316 336 340 350 356 3 5 5 1 5 5 8 6 9 7 32 33 25 31 11 353 345 91 95 72 96 111 34 266 324 58 275 324 62 151 96 90 84 8 263 182 107 88 329 302
304 312 326 332 344 352 356 358 359 355 358 4 9 7 -0 4 339 30 16 351 337 333 181 145 130 157 129 194 161 105 122 190 334 32 77 107 89 106 25 309 123 179 245 311 337
285 295 308 316 325 335 347 352 350 352 352 354 2 5 0 353 41 14 340 343 343 343 168 158 136 33 195 197 318 266 156 161 59 69 51 70 55 271 79 249 114 308 334 340 334
285 282 288 297 307 318 329 341 344 343 348 349 351 351 12 117 173 298 319 329 344 123 148 113 113 276 188 159 217 122 48 54 129 79 55 61 306 285 204 205 262 322 337 327 330
293 285 278 285 289 299 311 321 332 334 335 339 340 345 178 186 244 299 308 313 250 137 150 145 189 290 131 123 338 282 132 77 110 129 197 318 278 241 235 215 263 333 286 304 321
314 290 282 277 282 288 299 303 313 322 328 325 325 320 193 323 250 288 297 326 105 129 145 160 135 94 90 60 80 15 133 141 185 228 247 237 279 311 263 194 251 271 252 301 324
303 309 292 280 279 281 291 292 300 309 313 309 307 287 245 240 266 268 243 69 105 137 115 162 156 133 136 100 124 107 88 271 208 212 219 13 276 228 176 195 240 252 260 301 317
294 296 302 286 275 281 286 290 290 299 300 292 283 280 269 248 266 242 206 111 91 89 115 120 139 128 95 131 106 111 9 287 218 168 201 92 272 207 189 199 231 247 249 289 311
290 291 291 295 283 276 279 288 291 289 282 271 260 267 268 246 221 220 188 147 106 102 115 125 129 114 130 115 30 317 245 218 253 202 138 175 271 215 193 209 232 242 232 268 302
279 285 288 288 293 281 275 277 282 285 263 238 213 258 235 208 224 201 156 157 125 118 115 138 121 90 15 95 214 203 225 292 226 221 219 245 260 252 234 219 224 231 243 243 260
267 273 279 288 286 291 281 282 260 245 218 214 184 145 168 202 181 190 167 143 139 161 164 178 85 206 218 201 182 124 254 287 253 191 260 237 269 265 258 210 213 223 240 224 261
267 263 266 276 284 283 281 242 250 244 301 241 231 220 197 193 181 213 187 189 184 182 145 38 219 203 125 114 106 73 78 274 293 171 248 292 279 277 234 208 204 211 228 214 271
251 258 255 264 273 278 254 233 254 286 272 254 222 213 215 213 220 187 182 192 202 186 173 172 196 158 118 124 143 192 160 239 237 329 279 319 295 337 356 180 202 205 204 238 275
250 252 248 254 267 257 238 225 207 60 47 229 206 205 184 158 221 176 185 177 219 203 179 218 170 150 141 213 162 220 127 156 302 36 267 47 284 307 294 211 191 199 204 227 230
253 252 249 243 231 221 202 183 151 121 291 108 155 151 157 168 134 194 184 178 190 202 110 215 160 164 179 212 146 181 136 146 61 300 349 332 66 272 296 259 237 215 215 201 225
263 253 242 242 232 231 169 156 135 63 240 144 128 152 128 195 154 123 150 182 199 109 90 120 139 158 149 58 75 151 126 91 35 83 12 243 127 284 223 214 230 183 198 180 207
276 238 244 240 234 225 180 136 84 213 3 195 177 157 200 175 174 176 161 193 175 118 198 134 197 109 139 88 19 78 70 351 353 3 226 186 91 249 261 217 200 167 168 173 192
255 263 233 239 248 228 173 87 197 211 171 133 129 143 171 151 204 202 158 206 250 225 132 157 285 175 183 200 182 181 165 161 215 258 282 55 237 251 284 170 160 161 167 173 182
271 259 245 232 235 219 159 200 193 196 165 142 128 131 240 168 158 166 205 208 207 184 158 151 116 45 65 12 126 172 192 191 106 41 42 228 276 285 68 150 131 146 164 176 186
289 262 231 230 218 183 159 230 217 183 115 157 169 151 177 199 163 191 191 229 197 179 158 103 108 160 242 58 63 140 179 71 360 155 275 283 268 242 234 221 201 176 184 184 188
259 263 238 217 189 167 198 204 222 206 165 151 224 156 167 176 178 183 206 300 164 73 153 106 103 219 116 201 181 148 221 189 146 167 194 287 266 206 242 215 203 201 194 189 188
208 236 222 185 154 205 183 176 181 182 176 358 281 153 157 161 168 213 188 174 138 143 155 146 133 181 203 158 145 180 192 171 150 219 230 133 273 330 339 248 185 201 195 195 195
314 239 197 181 205 203 289 177 188 138 159 148 282 255 131 161 148 193 170 223 189 137 160 171 226 50 340 354 344 205 193 184 116 83 209 154 256 325 323 345 195 196 194 192 191
288 253 186 219 262 200 166 213 183 208 148 161 169 13 85 150 115 177 148 227 7 101 142 121 148 192 194 182 119 193 196 189 160 166 186 231 278 232 231 236 238 204 196 192 193
240 261 214 198 227 253 205 183 184 167 205 187 152 180 179 197 125 180 126 102 27 168 20 128 193 199 245 233 204 203 198 193 205 222 195 211 225 246 245 216 223 218 200 193 195
196 264 324 295 252 204 227 232 200 186 163 203 220 190 192 168 191 201 132 188 184 186 169 125 199 115 294 241 221 242 220 220 218 232 239 248 271 249 247 249 227 222 205 199 202
248 255 301 287 314 209 216 216 256 214 221 211 206 169 209 205 175 133 164 215 167 157 162 155 149 142 254 321 355 300 223 218 221 214 223 226 244 125 251 231 233 223 211 208 213